Tracking 29892 objects as of 21-Nov-2024
HD Live streaming from Space Station
objects crossing your sky now

STARLINK-2397

Track STARLINK-2397 now!
10-day predictions
STARLINK-2397 is classified as:


NORAD ID: 47917
Int'l Code: 2021-021BK
Perigee: 496.4 km
Apogee: 497.8 km
Inclination: 53.0 °
Period: 94.4 minutes
Semi major axis: 6868 km
RCS: Unknown
Launch date: March 14, 2021
Source: United States (US)
Launch site: AIR FORCE EASTERN TEST RANGE (AFETR)
Your satellite tracking list
Your tracking list is empty




NASA's NSSDC Master Catalog

Two Line Element Set (TLE):
1 47917U 21021BK  24325.91668981  .00420293  00000-0  15579-1 0  9996
2 47917  53.0480 236.0878 0001049 102.6965 106.4022 15.25274764  5808
Source of the keplerian elements: AFSPC